Regional Weather Roundup
Issued by NWS

Home | Current Version | Previous Version | Text Only | Print | Product List | Glossary Off
Versions: 1 2 3 4 5 6 7 8 9 10 11 12 13 14 15 16 17 18 19 20 21 22 23 24 25 26 27 28 29 30 31 32 33 34 35 36 37 38 39 40 41 42 43 44 45 46 47 48 49 50

000
ASUS43 KLMK 241210
RWRKY
KENTUCKY REGIONAL WEATHER ROUNDUP
NATIONAL WEATHER SERVICE LOUISVILLE KY
800 AM EDT THU JUL 24 2014

NOTE "FAIR" INDICATES FEW OR NO CLOUDS BELOW 12,000 FEET
WITH NO SIGNIFICANT WEATHER AND/OR OBSTRUCTIONS TO VISIBILITY.

KYZ001>023-026-027-061>063-070>075-241300-
WESTERN AND SOUTH CENTRAL KENTUCKY

CITY           SKY/WX    TMP DP  RH WIND       PRES   REMARKS
PADUCAH        SUNNY     61  53  75 N7        30.06R
HENDERSON      CLOUDY    61  52  72 NW6       30.04R
OWENSBORO      PTSUNNY   65  59  81 N6        30.03R
HOPKINSVILLE   MOSUNNY   66  61  82 NW6       30.02R
BOWLING GREEN  CLOUDY    71  65  81 N6        30.00R
GLASGOW        CLOUDY    69  68  94 N3        29.99R
$$

KYZ024-025-028>034-038-045-046-053-241300-
NORTH CENTRAL KENTUCKY

CITY           SKY/WX    TMP DP  RH WIND       PRES   REMARKS
LOUISVILLE/SDF PTSUNNY   70  62  76 NE8       30.01R
LOUISVILLE/LOU MOSUNNY   68  61  78 NE9       30.02R
FORT KNOX      PTSUNNY   68  65  89 N7        30.00R
$$

KYZ035>037-039>044-047>052-055>060-089>105-241300-
NORTHEAST KENTUCKY

CITY           SKY/WX    TMP DP  RH WIND       PRES   REMARKS
LEXINGTON      CLOUDY    65  60  84 N14       30.01R
COVINGTON      MOSUNNY   63  55  75 NE14      30.04R
FRANKFORT      CLOUDY    64  58  80 N9        30.01R
$$

KYZ054-064>069-076>088-106>120-241300-
SOUTHEAST KENTUCKY

CITY           SKY/WX    TMP DP  RH WIND       PRES   REMARKS
JACKSON        FOG       69  67  93 CALM      29.99R VSB<1/4
LONDON         CLOUDY    70  68  93 S3        29.99S FOG
SOMERSET       CLOUDY    70  70 100 CALM      29.99R FOG
MIDDLESBORO    CLOUDY    67  67  99 CALM      30.00R FOG
MONTICELLO     FOG       72  70  94 S5        30.00R VSB 1/2
$$



USA.gov is the U.S. government's official web portal to all federal, state and local government web resources and services.